Weather History for Phoenix, AZ

Change the Weather History Date:

Saturday, March 15, 2014

  Actual Average Record
Temperature  
Mean Temperature 71 °F 65 °F  
Max Temperature 86 °F 77 °F 92 °F (2007)
Min Temperature 55 °F 53 °F 31 °F (1962)
Degree Days  
Heating Degree Days 0 3  
Month to date heating degree days 7 50  
Since 1 July heating degree days 541 883  
Cooling Degree Days 6 3  
Month to date cooling degree days 50 28  
Year to date cooling degree days 112 45  
Growing Degree Days 20 (Base 50)    
Moisture  
Dew Point 23 °F    
Average Humidity 27    
Maximum Humidity 61    
Minimum Humidity 4    
Precipitation  
Precipitation 0.00 in 0.04 in 0.79 in (1919)
Month to date precipitation 0.99 0.56  
Year to date precipitation 0.99 2.39  
Snow  
Snow 0.00 in - - ()
Month to date snowfall 0.0  
Year to date snowfall 0.0  
Since 1 July snowfall 0.0  
Snow Depth 0.00 in    
Sea Level Pressure  
Sea Level Pressure 30.01 in    
Wind  
Wind Speed 11 mph (North)    
Max Wind Speed 29 mph    
Max Gust Speed 38 mph    
Visibility 10 miles    
Events      
T = Trace of Precipitation, MM = Missing Value Source: NWS Daily Summary

Daily Weather History Graph

Daily Weather History Graph

Search for Another Location

Airport:

Trip Planner

Search our weather history database for the weather conditions in past years. The results will help you decide how hot, cold, wet, or windy it might be!

Date:

Astronomy

Mar. 15, 2014 Rise Set
Actual Time 6:38 AM MST 6:35 PM MST
Civil Twilight 6:13 AM MST 7:00 PM MST
Nautical Twilight 5:44 AM MST 7:29 PM MST
Astronomical Twilight 5:15 AM MST 7:58 PM MST
Moon 5:59 PM MST (3/15) 5:50 AM MST (3/15)
Length of Visible Light 12h 47m
Length of Day
11h 57m
Waxing Gibbous, 99% of the Moon is Illuminated
Mar 15
Waxing Gibbous
Mar 16
Full
Mar 23
Last Quarter
Mar 30
New
Apr 7
First Quarter

Hourly Weather History & Observations

Time (MST) Temp. Dew Point Humidity Pressure Visibility Wind Dir Wind Speed Gust Speed Precip Events Conditions
12:51 AM 63.0 °F 42.1 °F 46% 29.99 in 10.0 mi East 6.9 mph - N/A   Clear
1:51 AM 62.1 °F 43.0 °F 50% 29.99 in 10.0 mi East 4.6 mph - N/A   Clear
2:51 AM 60.1 °F 43.0 °F 53% 29.98 in 10.0 mi East 8.1 mph - N/A   Clear
3:51 AM 57.9 °F 44.1 °F 60% 29.98 in 10.0 mi East 4.6 mph - N/A   Clear
4:51 AM 57.9 °F 43.0 °F 58% 29.99 in 10.0 mi Calm Calm - N/A   Partly Cloudy
5:51 AM 57.0 °F 43.0 °F 59% 30.01 in 10.0 mi East 3.5 mph - N/A   Partly Cloudy
6:51 AM 55.9 °F 43.0 °F 62% 30.04 in 10.0 mi East 4.6 mph - N/A   Partly Cloudy
7:51 AM 59.0 °F 44.1 °F 58% 30.07 in 10.0 mi SSE 3.5 mph - N/A   Partly Cloudy
8:51 AM 64.0 °F 43.0 °F 46% 30.07 in 10.0 mi Calm Calm - N/A   Clear
9:51 AM 66.9 °F 41.0 °F 39% 30.08 in 10.0 mi WSW 3.5 mph - N/A   Clear
10:51 AM 72.0 °F 39.0 °F 30% 30.08 in 10.0 mi West 3.5 mph - N/A   Clear
11:51 AM 77.0 °F 32.0 °F 19% 30.06 in 10.0 mi West 10.4 mph - N/A   Clear
12:51 PM 81.0 °F 10.0 °F 7% 30.02 in 10.0 mi NNW 23.0 mph 27.6 mph N/A   Clear
1:51 PM 81.0 °F 1.9 °F 5% 29.99 in 10.0 mi NNW 13.8 mph 23.0 mph N/A   Clear
2:51 PM 82.9 °F 3.9 °F 5% 29.97 in 10.0 mi NW 20.7 mph 27.6 mph N/A   Clear
3:51 PM 84.0 °F 15.1 °F 8% 29.95 in 10.0 mi West 11.5 mph 20.7 mph N/A   Clear
4:51 PM 84.9 °F 3.9 °F 5% 29.92 in 10.0 mi NW 27.6 mph 38.0 mph N/A   Clear
5:51 PM 84.0 °F 6.1 °F 5% 29.92 in 10.0 mi NNW 17.3 mph - N/A   Clear
6:51 PM 82.0 °F 3.0 °F 5% 29.94 in 10.0 mi NNW 16.1 mph 25.3 mph N/A   Clear
7:51 PM 80.1 °F 1.0 °F 5% 29.97 in 10.0 mi NNW 20.7 mph 31.1 mph N/A   Clear
8:51 PM 79.0 °F 3.0 °F 5% 30.00 in 10.0 mi NNW 15.0 mph 26.5 mph N/A   Clear
9:51 PM 77.0 °F 3.0 °F 6% 30.05 in 10.0 mi North 13.8 mph - N/A   Clear
10:51 PM 73.9 °F 1.9 °F 6% 30.08 in 10.0 mi ENE 11.5 mph - N/A   Clear
11:51 PM 73.9 °F 1.0 °F 6% 30.11 in 10.0 mi NE 12.7 mph - N/A   Clear